Birmingham, United Kingdom

2:56 AM GMT on November 24, 2017 (GMT +0000)
Birmingham

Weather History for EGBB - May, 2013

Change the Weather History Date:

Sunday, May 5, 2013

  Actual Average Record
Temperature  
Mean Temperature 52 °F -  
Max Temperature 64 °F 61 °F 68 °F (2011)
Min Temperature 41 °F 44 °F 35 °F (2012)
Degree Days  
Heating Degree Days 12    
Growing Degree Days 2 (Base 50)    
Moisture  
Dew Point 45 °F    
Average Humidity 71    
Maximum Humidity 93    
Minimum Humidity 52    
Precipitation  
Precipitation 0.00 in 0.07 in - ()
Sea Level Pressure  
Sea Level Pressure 30.13 in    
Wind  
Wind Speed 7 mph ()    
Max Wind Speed 13 mph    
Max Gust Speed -    
Visibility 6.2 miles    
Events      
Averages and records for this station are not official NWS values.
T = Trace of Precipitation, MM = Missing Value Source: Averaged Metar Reports

Daily Weather History Graph

Daily Weather History Graph

Search for Another Location

Airport or City:

Trip Planner

Search our weather history database for the weather conditions in past years. The results will help you decide how hot, cold, wet, or windy it might be!

Date:

Astronomy

May. 05, 2013 Rise Set
Actual Time 5:28 AM BST 8:40 PM BST
Civil Twilight 4:47 AM BST 9:20 PM BST
Nautical Twilight 3:54 AM BST 10:14 PM BST
Astronomical Twilight 2:42 AM BST 11:27 PM BST
Moon 3:26 AM BST (5/5) 3:53 PM BST (5/5)
Length of Visible Light 16h 33m
Length of Day
15h 12m
Waning Crescent, 20% of the Moon is Illuminated
May 5
Waning Crescent
May 10
New
May 18
First Quarter
May 25
Full
May 31
Last Quarter

Hourly Weather History & Observations

Time (BST) Temp. Windchill Dew Point Humidity Pressure Visibility Wind Dir Wind Speed Gust Speed Precip Events Conditions
12:20 AM 46.4 °F 41.9 °F 39.2 °F 76% 30.12 in - WSW 9.2 mph - N/A   Clear
12:50 AM 46.4 °F 42.4 °F 41.0 °F 81% 30.12 in - SW 8.1 mph - N/A   Clear
1:20 AM 46.4 °F 42.9 °F 39.2 °F 76% 30.12 in - SW 6.9 mph - N/A   Clear
1:50 AM 44.6 °F 42.2 °F 39.2 °F 81% 30.12 in 6.2 mi SSW 4.6 mph - N/A   Unknown
2:20 AM 44.6 °F 42.2 °F 39.2 °F 81% 30.12 in 6.2 mi SSW 4.6 mph - N/A   Unknown
2:50 AM 44.6 °F 41.4 °F 39.2 °F 81% 30.12 in 6.2 mi SW 5.8 mph - N/A   Unknown
3:20 AM 42.8 °F 40.1 °F 39.2 °F 87% 30.12 in - SSW 4.6 mph - N/A   Clear
3:50 AM 41.0 °F 38.0 °F 37.4 °F 87% 30.09 in - SSW 4.6 mph - N/A   Clear
4:20 AM 42.8 °F 40.1 °F 41.0 °F 93% 30.09 in - SW 4.6 mph - N/A   Clear
4:50 AM 44.6 °F 40.7 °F 41.0 °F 87% 30.09 in - SSW 6.9 mph - N/A   Clear
5:20 AM 44.6 °F 42.2 °F 41.0 °F 87% 30.09 in - SW 4.6 mph - N/A   Clear
5:50 AM 42.8 °F 40.1 °F 41.0 °F 93% 30.09 in - South 4.6 mph - N/A   Clear
6:20 AM 46.4 °F 44.3 °F 42.8 °F 87% 30.09 in - SW 4.6 mph - N/A   Clear
6:50 AM 48.2 °F - 44.6 °F 87% 30.12 in - WSW 5.8 mph - N/A   Clear
7:20 AM 50.0 °F - 44.6 °F 82% 30.12 in 6.2 mi SW 5.8 mph - N/A   Scattered Clouds
7:50 AM 51.8 °F - 46.4 °F 82% 30.12 in 6.2 mi WSW 6.9 mph - N/A   Partly Cloudy
8:20 AM 53.6 °F - 48.2 °F 82% 30.12 in 6.2 mi West 8.1 mph - N/A   Scattered Clouds
8:50 AM 53.6 °F - 48.2 °F 82% 30.15 in 6.2 mi West 11.5 mph - N/A   Mostly Cloudy
9:20 AM 55.4 °F - 48.2 °F 77% 30.15 in 6.2 mi West 9.2 mph - N/A   Mostly Cloudy
9:50 AM 55.4 °F - 48.2 °F 77% 30.15 in 6.2 mi West 9.2 mph - N/A   Mostly Cloudy
10:20 AM 55.4 °F - 48.2 °F 77% 30.15 in 6.2 mi WSW 9.2 mph - N/A   Mostly Cloudy
10:50 AM 57.2 °F - 48.2 °F 72% 30.15 in 6.2 mi SW 9.2 mph - N/A   Mostly Cloudy
11:20 AM 59.0 °F - 48.2 °F 67% 30.15 in 6.2 mi SW 9.2 mph - N/A   Mostly Cloudy
11:50 AM 59.0 °F - 48.2 °F 67% 30.15 in 6.2 mi SW 10.4 mph - N/A   Scattered Clouds
12:20 PM 60.8 °F - 50.0 °F 68% 30.15 in 6.2 mi SW 10.4 mph - N/A   Mostly Cloudy
12:50 PM 62.6 °F - 48.2 °F 59% 30.15 in 6.2 mi SSW 12.7 mph - N/A   Mostly Cloudy
1:20 PM 60.8 °F - 48.2 °F 63% 30.15 in 6.2 mi WSW 10.4 mph - N/A   Mostly Cloudy
1:50 PM 60.8 °F - 48.2 °F 63% 30.15 in 6.2 mi SW 9.2 mph - N/A   Mostly Cloudy
2:20 PM 64.4 °F - 48.2 °F 56% 30.15 in 6.2 mi SW 10.4 mph - N/A   Mostly Cloudy
2:50 PM 62.6 °F - 48.2 °F 59% 30.15 in 6.2 mi WSW 10.4 mph - N/A   Scattered Clouds
3:20 PM 64.4 °F - 50.0 °F 59% 30.15 in 6.2 mi SW 9.2 mph - N/A   Scattered Clouds
3:50 PM 64.4 °F - 48.2 °F 56% 30.15 in 6.2 mi SW 10.4 mph - N/A   Scattered Clouds
4:20 PM 62.6 °F - 48.2 °F 59% 30.15 in 6.2 mi WSW 11.5 mph - N/A   Mostly Cloudy
4:50 PM 62.6 °F - 46.4 °F 55% 30.15 in 6.2 mi SW 9.2 mph - N/A   Scattered Clouds
5:20 PM 62.6 °F - 46.4 °F 55% 30.12 in 6.2 mi WSW 10.4 mph - N/A   Partly Cloudy
5:50 PM 62.6 °F - 44.6 °F 52% 30.12 in 6.2 mi SW 9.2 mph - N/A   Partly Cloudy
6:20 PM 62.6 °F - 44.6 °F 52% 30.12 in 6.2 mi SW 8.1 mph - N/A   Partly Cloudy
6:50 PM 62.6 °F - 44.6 °F 52% 30.12 in 6.2 mi WSW 10.4 mph - N/A   Partly Cloudy
7:20 PM 60.8 °F - 44.6 °F 55% 30.12 in 6.2 mi West 8.1 mph - N/A   Partly Cloudy
7:50 PM 59.0 °F - 44.6 °F 59% 30.15 in 6.2 mi West 9.2 mph - N/A   Partly Cloudy
8:20 PM 57.2 °F - 44.6 °F 63% 30.15 in - WSW 9.2 mph - N/A   Clear
8:50 PM 55.4 °F - 44.6 °F 67% 30.15 in - West 5.8 mph - N/A   Clear
9:20 PM 55.4 °F - 44.6 °F 67% 30.15 in - West 5.8 mph - N/A   Clear
9:50 PM 53.6 °F - 42.8 °F 67% 30.15 in - West 4.6 mph - N/A   Clear
10:20 PM 51.8 °F - 42.8 °F 71% 30.15 in - West 4.6 mph - N/A   Clear
10:50 PM 51.8 °F - 42.8 °F 71% 30.15 in - WSW 4.6 mph - N/A   Clear
11:20 PM 51.8 °F - 42.8 °F 71% 30.15 in - WSW 5.8 mph - N/A   Clear
11:50 PM 50.0 °F - 42.8 °F 76% 30.15 in - West 3.5 mph - N/A   Clear